Change the Weather History Date:

Sunday, July 21, 2013

  Actual Average Record
Temperature  
Mean Temperature 66 °F -  
Max Temperature 77 °F 77 °F 91 °F (2004)
Min Temperature 55 °F 55 °F 44 °F (2000)
Cooling Degree Days 1    
Growing Degree Days 16 (Base 50)    
Moisture  
Dew Point 58 °F    
Average Humidity 74    
Maximum Humidity 94    
Minimum Humidity 57    
Precipitation  
Precipitation 0.00 in - - ()
Sea Level Pressure  
Sea Level Pressure 29.93 in    
Wind  
Wind Speed 5 mph (SE)    
Max Wind Speed 12 mph    
Max Gust Speed 16 mph    
Visibility 10 miles    
Events      
Averages and records for this station are not official NWS values.
T = Trace of Precipitation, MM = Missing Value Source: NWS Daily Summary

Daily Weather History Graph

Daily Weather History Graph

Search for Another Location

Airport or City:

Trip Planner

Search our weather history database for the weather conditions in past years. The results will help you decide how hot, cold, wet, or windy it might be!

Date:

Astronomy

Jul. 21, 2013 Rise Set
Actual Time 5:45 AM CDT 9:01 PM CDT
Civil Twilight 5:08 AM CDT 9:38 PM CDT
Nautical Twilight 4:20 AM CDT 10:26 PM CDT
Astronomical Twilight 3:19 AM CDT 11:26 PM CDT
Moon 7:57 PM CDT (7/21) 4:33 AM CDT (7/21)
Length of Visible Light 16h 30m
Length of Day
15h 16m
Waxing Gibbous, 98% of the Moon is Illuminated
Jul 21
Waxing Gibbous
Jul 22
Full
Jul 29
Last Quarter
Aug 6
New
Aug 14
First Quarter

Hourly Weather History & Observations

Time (CDT) Temp. Dew Point Humidity Pressure Visibility Wind Dir Wind Speed Gust Speed Precip Events Conditions
12:13 AM 55.4 °F 53.6 °F 94% 30.00 in 10.0 mi Calm Calm - N/A   Clear
12:33 AM 55.4 °F 53.6 °F 94% 30.00 in 10.0 mi Calm Calm - N/A   Mostly Cloudy
12:52 AM 55.4 °F 53.6 °F 94% 30.01 in 10.0 mi Calm Calm - N/A   Overcast
1:13 AM 57.2 °F 55.4 °F 94% 30.01 in 10.0 mi Calm Calm - N/A   Overcast
1:32 AM 59.0 °F 53.6 °F 82% 30.01 in 10.0 mi ESE 4.6 mph - N/A   Overcast
1:53 AM 59.0 °F 53.6 °F 82% 30.01 in 10.0 mi East 3.5 mph - N/A   Overcast
2:13 AM 59.0 °F 55.4 °F 88% 30.01 in 10.0 mi ESE 4.6 mph - N/A   Overcast
2:33 AM 60.8 °F 55.4 °F 82% 30.00 in 10.0 mi East 3.5 mph - N/A   Overcast
2:53 AM 60.8 °F 55.4 °F 82% 29.99 in 10.0 mi East 3.5 mph - N/A   Overcast
3:13 AM 59.0 °F 55.4 °F 88% 29.99 in 10.0 mi East 4.6 mph - N/A   Overcast
3:33 AM 57.2 °F 53.6 °F 88% 29.99 in 10.0 mi East 4.6 mph - N/A   Overcast
3:52 AM 57.2 °F 53.6 °F 88% 30.00 in 10.0 mi East 4.6 mph - N/A   Mostly Cloudy
4:13 AM 57.2 °F 53.6 °F 88% 30.00 in 10.0 mi ESE 3.5 mph - N/A   Mostly Cloudy
4:33 AM 57.2 °F 53.6 °F 88% 30.00 in 10.0 mi Calm Calm - N/A   Overcast
4:52 AM 57.2 °F 53.6 °F 88% 30.00 in 10.0 mi ESE 3.5 mph - N/A   Overcast
5:13 AM 57.2 °F 53.6 °F 88% 29.99 in 10.0 mi ESE 4.6 mph - N/A   Overcast
5:32 AM 57.2 °F 53.6 °F 88% 29.99 in 10.0 mi ESE 3.5 mph - N/A   Overcast
5:52 AM 57.2 °F 53.6 °F 88% 29.99 in 10.0 mi Calm Calm - N/A   Overcast
6:13 AM 57.2 °F 53.6 °F 88% 29.99 in 10.0 mi SE 4.6 mph - N/A   Overcast
6:32 AM 57.2 °F 51.8 °F 82% 30.00 in 10.0 mi ESE 4.6 mph - N/A   Overcast
6:53 AM 57.2 °F 51.8 °F 82% 30.00 in 10.0 mi ESE 6.9 mph - N/A   Overcast
7:13 AM 57.2 °F 51.8 °F 82% 30.00 in 10.0 mi ESE 5.8 mph - N/A   Overcast
7:32 AM 57.2 °F 51.8 °F 82% 29.99 in 10.0 mi ESE 4.6 mph - N/A   Mostly Cloudy
7:53 AM 59.0 °F 51.8 °F 77% 29.99 in 10.0 mi SE 9.2 mph - N/A   Mostly Cloudy
8:13 AM 59.0 °F 51.8 °F 77% 29.99 in 10.0 mi ESE 6.9 mph - N/A   Overcast
8:33 AM 60.8 °F 51.8 °F 72% 29.99 in 10.0 mi SE 8.1 mph - N/A   Scattered Clouds
8:53 AM 60.8 °F 51.8 °F 72% 30.00 in 10.0 mi ESE 4.6 mph - N/A   Scattered Clouds
9:12 AM 62.6 °F 51.8 °F 68% 29.99 in 10.0 mi ESE 10.4 mph - N/A   Mostly Cloudy
9:33 AM 62.6 °F 51.8 °F 68% 29.99 in 10.0 mi SE 5.8 mph - N/A   Mostly Cloudy
9:53 AM 64.4 °F 51.8 °F 64% 29.99 in 10.0 mi ESE 6.9 mph - N/A   Overcast
10:12 AM 64.4 °F 53.6 °F 68% 29.98 in 10.0 mi SE 9.2 mph - N/A   Scattered Clouds
10:32 AM 66.2 °F 53.6 °F 64% 29.97 in 10.0 mi ESE 9.2 mph - N/A   Clear
10:53 AM 66.2 °F 53.6 °F 64% 29.97 in 10.0 mi ESE 6.9 mph - N/A   Clear
11:13 AM 68.0 °F 55.4 °F 64% 29.97 in 10.0 mi SE 6.9 mph - N/A   Clear
11:33 AM 69.8 °F 55.4 °F 60% 29.96 in 10.0 mi SE 9.2 mph - N/A   Clear
11:52 AM 71.6 °F 57.2 °F 60% 29.96 in 10.0 mi SE 8.1 mph - N/A   Clear
12:13 PM 71.6 °F 57.2 °F 60% 29.96 in 10.0 mi SE 8.1 mph - N/A   Clear
12:32 PM 71.6 °F 57.2 °F 60% 29.95 in 10.0 mi SE 6.9 mph - N/A   Clear
12:53 PM 73.4 °F 59.0 °F 61% 29.94 in 10.0 mi ESE 9.2 mph - N/A   Clear
1:13 PM 73.4 °F 57.2 °F 57% 29.93 in 10.0 mi SE 11.5 mph - N/A   Clear
1:32 PM 73.4 °F 59.0 °F 61% 29.93 in 10.0 mi SE 6.9 mph 16.1 mph N/A   Scattered Clouds
1:53 PM 73.4 °F 60.8 °F 65% 29.92 in 10.0 mi ESE 10.4 mph - N/A   Scattered Clouds
2:13 PM 75.2 °F 59.0 °F 57% 29.92 in 10.0 mi ESE 10.4 mph - N/A   Scattered Clouds
2:32 PM 75.2 °F 59.0 °F 57% 29.92 in 10.0 mi ESE 6.9 mph - N/A   Clear
2:53 PM 73.4 °F 60.8 °F 65% 29.91 in 10.0 mi ESE 5.8 mph - N/A   Mostly Cloudy
3:13 PM 75.2 °F 60.8 °F 61% 29.91 in 10.0 mi ESE 9.2 mph - N/A   Mostly Cloudy
3:32 PM 75.2 °F 60.8 °F 61% 29.91 in 10.0 mi SE 9.2 mph - N/A   Mostly Cloudy
3:53 PM 75.2 °F 60.8 °F 61% 29.90 in 10.0 mi SSE 9.2 mph - N/A   Scattered Clouds
4:12 PM 75.2 °F 60.8 °F 61% 29.90 in 10.0 mi ESE 8.1 mph - N/A   Mostly Cloudy
4:33 PM 75.2 °F 62.6 °F 65% 29.89 in 10.0 mi SSE 10.4 mph - N/A   Mostly Cloudy
4:53 PM 75.2 °F 62.6 °F 65% 29.88 in 10.0 mi SE 6.9 mph - N/A   Mostly Cloudy
5:12 PM 75.2 °F 62.6 °F 65% 29.88 in 10.0 mi SE 9.2 mph - N/A   Scattered Clouds
5:33 PM 75.2 °F 62.6 °F 65% 29.87 in 10.0 mi SSE 6.9 mph - N/A   Scattered Clouds
5:52 PM 77.0 °F 62.6 °F 61% 29.86 in 10.0 mi South 8.1 mph - N/A   Scattered Clouds
6:13 PM 75.2 °F 62.6 °F 65% 29.85 in 10.0 mi SSE 10.4 mph - N/A   Scattered Clouds
6:33 PM 75.2 °F 62.6 °F 65% 29.85 in 10.0 mi SSE 9.2 mph - N/A   Scattered Clouds
6:52 PM 75.2 °F 62.6 °F 65% 29.84 in 10.0 mi SSE 9.2 mph - N/A   Clear
7:13 PM 75.2 °F 62.6 °F 65% 29.83 in 10.0 mi SSE 9.2 mph - N/A   Clear
7:33 PM 75.2 °F 64.4 °F 69% 29.84 in 10.0 mi SSE 5.8 mph - N/A   Clear
7:52 PM 75.2 °F 62.6 °F 65% 29.84 in 10.0 mi South 8.1 mph - N/A   Clear
8:13 PM 73.4 °F 62.6 °F 69% 29.84 in 10.0 mi South 8.1 mph - N/A   Clear
8:33 PM 71.6 °F 62.6 °F 73% 29.83 in 10.0 mi SSE 6.9 mph - N/A   Clear
8:52 PM 69.8 °F 62.6 °F 78% 29.82 in 10.0 mi SSE 4.6 mph - N/A   Clear
9:13 PM 68.0 °F 62.6 °F 83% 29.81 in 10.0 mi SSE 4.6 mph - N/A   Clear
9:33 PM 69.8 °F 62.6 °F 78% 29.82 in 10.0 mi SSE 4.6 mph - N/A   Clear
9:52 PM 68.0 °F 62.6 °F 83% 29.84 in 10.0 mi SSE 4.6 mph - N/A   Clear
10:13 PM 68.0 °F 62.6 °F 83% 29.84 in 10.0 mi SSE 5.8 mph - N/A   Clear
10:33 PM 68.0 °F 62.6 °F 83% 29.83 in 10.0 mi SE 6.9 mph - N/A   Clear
10:52 PM 69.8 °F 62.6 °F 78% 29.81 in 10.0 mi SE 9.2 mph - N/A   Clear
11:13 PM 69.8 °F 64.4 °F 83% 29.81 in 10.0 mi SE 8.1 mph - N/A   Clear
11:32 PM 69.8 °F 64.4 °F 83% 29.80 in 10.0 mi SSE 10.4 mph - N/A   Clear
11:53 PM 69.8 °F 64.4 °F 83% 29.80 in 10.0 mi SSE 10.4 mph - N/A   Clear